Total_Precipitation_Accumulation
0.00 0.00 0.01 0.03 0.03 0.04 0.08 0.14 0.25 0.44 0.52 0.43 0.42 0.44 0.46 0.52 0.76 1.37 0.87 0.48 0.29 0.22 0.24 0.25 0.25 0.23 0.23 0.21 0.21 0.19 0.19 0.22 0.22 0.21 0.20 0.18 0.15 0.15 0.15 0.17 0.21 0.29 0.35 0.34 0.30 0.29 0.30 0.31 0.25
0.00 0.01 0.02 0.02 0.02 0.05 0.13 0.18 0.33 0.45 0.46 0.45 0.45 0.54 0.55 0.48 0.40 0.42 0.49 0.40 0.25 0.23 0.28 0.27 0.28 0.30 0.28 0.25 0.25 0.24 0.25 0.25 0.27 0.27 0.26 0.23 0.19 0.16 0.17 0.19 0.23 0.30 0.34 0.32 0.29 0.26 0.25 0.23 0.19
0.02 0.03 0.02 0.01 0.01 0.06 0.21 0.29 0.38 0.45 0.45 0.49 0.58 0.62 0.62 0.63 0.48 0.49 0.51 0.37 0.28 0.28 0.29 0.27 0.24 0.31 0.37 0.36 0.35 0.34 0.32 0.33 0.35 0.38 0.38 0.35 0.27 0.20 0.22 0.25 0.26 0.31 0.36 0.37 0.32 0.26 0.22 0.20 0.20
0.02 0.02 0.01 0.01 0.03 0.07 0.18 0.34 0.41 0.47 0.49 0.46 0.48 0.63 0.72 0.70 0.58 0.53 0.49 0.40 0.30 0.34 0.37 0.31 0.31 0.35 0.48 0.47 0.43 0.43 0.42 0.42 0.46 0.48 0.44 0.41 0.32 0.27 0.29 0.33 0.35 0.37 0.42 0.46 0.40 0.36 0.28 0.24 0.23
0.00 0.00 0.00 0.01 0.05 0.09 0.17 0.36 0.45 0.47 0.47 0.46 0.56 0.74 0.83 0.91 0.78 0.65 0.55 0.53 0.46 0.45 0.48 0.42 0.40 0.41 0.53 0.52 0.49 0.46 0.46 0.45 0.53 0.55 0.49 0.44 0.37 0.33 0.35 0.41 0.42 0.47 0.51 0.50 0.45 0.41 0.36 0.33 0.32
0.00 0.00 0.01 0.03 0.08 0.16 0.22 0.31 0.40 0.48 0.53 0.53 0.63 0.82 1.10 1.22 1.06 0.86 0.68 0.63 0.54 0.49 0.48 0.43 0.43 0.45 0.58 0.62 0.54 0.50 0.49 0.52 0.61 0.62 0.56 0.47 0.42 0.44 0.49 0.51 0.54 0.59 0.55 0.49 0.46 0.45 0.41 0.41 0.42
0.00 0.00 0.01 0.03 0.08 0.17 0.23 0.34 0.47 0.52 0.62 0.63 0.72 0.94 1.27 1.36 1.08 0.89 0.81 0.72 0.60 0.56 0.55 0.54 0.58 0.59 0.61 0.61 0.57 0.62 0.57 0.60 0.69 0.65 0.67 0.57 0.50 0.60 0.67 0.66 0.67 0.69 0.60 0.50 0.49 0.50 0.44 0.47 0.53
0.00 0.00 0.01 0.05 0.07 0.13 0.24 0.36 0.54 0.63 0.72 0.78 0.94 1.05 1.49 1.50 1.22 1.06 0.96 1.01 1.02 1.08 1.13 0.95 0.92 0.85 0.70 0.61 0.62 0.63 0.62 0.69 0.80 0.73 0.65 0.64 0.62 0.65 0.70 0.68 0.68 0.64 0.55 0.50 0.52 0.54 0.49 0.47 0.47
0.00 0.00 0.01 0.05 0.08 0.15 0.27 0.42 0.50 0.63 0.82 0.89 0.95 0.96 1.24 1.25 1.27 1.38 1.38 1.60 1.59 1.62 1.72 1.43 1.06 0.90 0.91 0.80 0.69 0.74 0.69 0.71 0.77 0.76 0.72 0.74 0.93 1.03 1.01 0.78 0.78 0.71 0.65 0.61 0.62 0.58 0.52 0.46 0.44
0.00 0.00 0.01 0.04 0.06 0.15 0.30 0.47 0.54 0.55 0.77 0.85 0.87 0.92 1.07 1.27 1.38 1.57 1.73 2.35 2.20 1.96 1.91 1.76 1.34 1.34 1.46 1.17 1.05 0.98 0.90 0.87 0.85 0.92 0.90 0.98 1.39 1.48 1.21 1.15 1.00 0.96 0.86 0.79 0.78 0.77 0.66 0.56 0.55
0.00 0.01 0.02 0.05 0.09 0.18 0.34 0.48 0.60 0.73 0.87 0.94 1.02 1.13 1.29 1.56 1.54 1.63 1.88 2.41 2.51 2.15 1.77 1.51 1.44 1.41 1.53 1.49 1.41 1.33 1.31 1.38 1.37 1.36 1.31 1.48 1.57 1.43 1.23 1.39 1.26 1.18 1.09 1.09 1.16 1.00 0.83 0.84 0.92
0.01 0.02 0.03 0.09 0.16 0.23 0.40 0.58 0.70 0.93 1.09 1.14 1.11 1.13 1.40 1.54 1.50 1.72 2.14 2.14 2.13 2.03 1.86 1.75 1.73 1.66 1.70 1.94 1.91 1.82 1.82 1.75 1.63 1.61 1.51 1.76 1.91 1.80 1.80 1.83 1.74 1.82 1.81 1.77 1.59 1.38 1.16 1.08 1.03
0.02 0.04 0.07 0.13 0.26 0.28 0.41 0.65 0.62 0.77 0.91 0.96 0.95 1.02 1.21 1.42 1.62 1.94 2.20 2.29 2.29 2.25 2.04 1.97 2.03 1.98 1.93 2.25 2.37 2.18 2.18 2.03 1.86 1.79 1.78 1.88 1.95 2.00 2.17 2.20 2.30 2.21 2.09 1.95 1.82 1.56 1.50 1.37 1.22
0.04 0.06 0.11 0.17 0.29 0.35 0.32 0.41 0.44 0.61 0.70 0.83 0.96 1.02 1.12 1.32 1.69 1.96 2.15 2.32 2.46 2.59 2.32 2.10 2.12 2.03 1.99 2.14 2.32 2.31 2.22 2.25 2.20 2.07 2.00 2.02 2.13 2.31 2.37 2.44 2.41 2.24 2.05 2.04 2.03 1.88 1.83 1.72 1.58
0.05 0.09 0.16 0.20 0.24 0.29 0.26 0.32 0.41 0.48 0.58 0.66 0.85 1.10 1.26 1.60 1.70 1.84 2.06 2.40 2.63 2.86 2.81 2.56 2.42 2.36 2.33 2.24 2.23 2.23 2.25 2.42 2.37 2.39 2.43 2.27 2.20 2.32 2.41 2.52 2.49 2.37 2.27 2.23 2.13 2.12 2.09 1.97 1.86
0.11 0.11 0.17 0.22 0.23 0.24 0.26 0.45 0.55 0.58 0.61 0.67 0.68 0.92 1.35 1.67 1.56 1.57 1.87 2.39 3.06 3.39 3.30 2.82 2.47 2.61 2.66 2.68 2.64 2.69 2.65 2.73 2.67 2.50 2.63 2.55 2.54 2.48 2.48 2.46 2.37 2.32 2.26 2.40 2.47 2.43 2.38 2.25 2.16
0.15 0.14 0.18 0.23 0.22 0.25 0.29 0.56 0.74 0.75 0.78 0.76 0.74 0.95 1.29 1.35 1.30 1.45 1.83 2.53 3.35 4.00 3.77 3.08 2.77 2.86 2.96 2.92 3.05 3.23 3.29 3.25 3.12 2.95 2.95 2.82 2.87 2.80 2.75 2.82 2.74 2.61 2.64 2.63 2.47 2.53 2.61 2.62 2.49
0.15 0.15 0.21 0.22 0.22 0.24 0.29 0.44 0.67 0.88 0.86 0.89 0.87 1.05 1.19 1.31 1.27 1.45 1.94 2.72 3.44 4.14 4.02 3.54 3.27 3.37 3.29 3.18 3.33 3.46 3.48 3.45 3.50 3.51 3.49 3.30 3.19 3.23 3.31 3.36 3.28 3.07 3.03 3.04 3.06 2.98 2.74 2.57 2.46
0.15 0.18 0.21 0.22 0.21 0.26 0.29 0.41 0.58 0.77 0.78 0.82 0.95 1.04 1.02 1.12 1.26 1.55 2.06 2.75 3.23 3.41 3.45 3.61 3.56 3.57 3.57 3.49 3.51 3.70 3.82 3.84 3.79 3.89 3.93 3.79 3.69 3.74 3.91 3.91 3.85 3.60 3.41 3.28 3.20 3.09 2.86 2.59 2.39
0.18 0.21 0.23 0.25 0.23 0.24 0.33 0.47 0.64 0.75 0.77 0.84 0.98 0.99 0.97 0.99 1.18 1.58 1.99 2.41 2.82 3.17 3.30 3.44 3.43 3.63 3.87 4.19 4.62 4.87 4.99 4.91 4.78 4.72 4.61 4.44 4.32 4.27 4.24 4.24 4.02 3.75 3.59 3.36 3.13 3.02 2.85 2.61 2.47
0.18 0.16 0.22 0.30 0.32 0.28 0.39 0.68 0.78 0.84 0.95 1.07 1.14 1.20 1.21 1.09 1.25 1.58 1.79 2.10 2.42 2.78 3.02 3.18 3.43 3.88 4.37 4.95 5.69 6.05 5.84 5.47 5.28 5.00 4.90 4.70 4.45 4.37 4.36 4.11 3.89 3.67 3.45 3.27 3.04 2.94 2.85 2.61 2.47
0.14 0.12 0.17 0.24 0.30 0.33 0.34 0.72 0.97 1.03 1.23 1.39 1.29 1.23 1.26 1.27 1.32 1.47 1.64 1.86 2.09 2.47 2.87 3.20 3.61 4.18 4.81 5.32 5.82 6.11 6.05 5.78 5.51 5.07 4.69 4.33 4.01 3.82 3.69 3.57 3.37 3.24 3.09 2.90 2.71 2.67 2.63 2.52 2.34
0.09 0.10 0.13 0.18 0.22 0.29 0.33 0.56 1.03 1.26 1.36 1.49 1.36 1.29 1.22 1.24 1.19 1.29 1.41 1.60 1.91 2.33 2.77 3.20 3.59 4.18 4.74 5.25 5.64 5.88 5.92 5.78 5.41 4.76 4.17 3.80 3.48 3.23 2.96 2.73 2.64 2.64 2.55 2.34 2.16 2.10 2.08 2.04 1.99
0.09 0.10 0.14 0.20 0.24 0.35 0.34 0.54 1.14 1.50 1.58 1.53 1.46 1.42 1.28 1.20 1.17 1.16 1.28 1.43 1.81 2.14 2.60 2.96 3.28 3.96 4.67 5.20 5.56 5.80 5.81 5.53 4.92 4.28 3.75 3.43 3.16 2.90 2.64 2.46 2.27 2.19 2.08 1.93 1.75 1.64 1.63 1.66 1.68
0.12 0.17 0.32 0.40 0.46 0.48 0.38 0.60 1.13 1.27 1.30 1.37 1.32 1.24 1.20 1.14 1.07 1.11 1.28 1.33 1.61 1.96 2.30 2.63 2.99 3.46 3.97 4.40 4.65 4.82 4.88 4.65 4.28 3.92 3.49 3.14 2.91 2.64 2.34 2.04 1.84 1.73 1.65 1.56 1.49 1.37 1.32 1.37 1.41
0.11 0.18 0.41 0.56 0.58 0.57 0.60 1.02 1.43 1.29 1.24 1.28 1.30 1.15 1.12 1.16 1.10 1.13 1.27 1.32 1.40 1.64 1.94 2.33 2.62 2.92 3.18 3.36 3.53 3.50 3.49 3.47 3.36 3.04 2.65 2.35 2.10 1.94 1.77 1.56 1.44 1.37 1.34 1.30 1.27 1.18 1.11 1.14 1.23
0.09 0.16 0.18 0.31 0.37 0.59 0.88 1.18 1.57 1.50 1.49 1.33 1.25 1.20 1.17 1.13 1.11 1.17 1.27 1.29 1.34 1.47 1.70 1.93 2.06 2.25 2.29 2.24 2.27 2.33 2.37 2.37 2.31 2.18 1.91 1.59 1.37 1.26 1.19 1.15 1.14 1.02 1.02 1.06 1.08 1.06 1.04 1.06 1.06
0.10 0.15 0.21 0.42 0.61 0.80 0.99 1.48 1.98 2.00 1.84 1.58 1.32 1.19 1.07 1.07 1.12 1.18 1.26 1.37 1.41 1.42 1.60 1.72 1.68 1.66 1.71 1.75 1.72 1.68 1.70 1.73 1.73 1.67 1.52 1.33 1.14 1.00 0.91 0.89 0.86 0.78 0.74 0.79 0.85 0.88 0.92 1.00 0.98
0.16 0.19 0.23 0.39 0.52 0.87 1.20 1.79 1.90 2.06 1.98 1.83 1.70 1.35 1.11 1.08 1.11 1.23 1.25 1.25 1.24 1.22 1.26 1.30 1.35 1.39 1.39 1.36 1.38 1.37 1.30 1.27 1.27 1.31 1.27 1.15 1.02 0.89 0.79 0.72 0.72 0.71 0.66 0.65 0.71 0.71 0.74 0.82 0.86
0.18 0.21 0.28 0.51 0.61 0.68 1.06 1.82 1.69 2.03 2.11 1.90 1.75 1.45 1.28 1.17 1.19 1.21 1.21 1.14 1.10 1.10 1.12 1.11 1.14 1.15 1.17 1.17 1.17 1.16 1.06 1.02 1.01 0.99 1.00 0.95 0.93 0.89 0.82 0.76 0.73 0.67 0.61 0.61 0.63 0.62 0.61 0.65 0.70